Starlink 32822

operational
NORAD ID: 62868 Int'l Des: 2025-022 Owner: SPXS Country: US Constellation: starlink
LEOCIRCULAR

Über Starlink 32822

Beschreibung wird geladen...

Live-Position

3D-Globus wird geladen...

Nächste Überflüge

Höhenverlauf

Altitude vs Time

uPlot chart will show altitude changes over time

Zweizeiliger Elementsatz

1 62868U 25022Q 26032.98958062 .00010397 00000-0 36288-3 0 9991
2 62868 53.1588 295.4856 0001198 94.4125 265.7013 15.30179988 56438
Epoch: 1. Feb. 2026 • Age: 29 hours

Aktueller Status

Höhe 481.3 km
Geschwindigkeit 7.62 km/s
Subsatellitenpunkt -20.89°S, 79.96°W
Startdatum 2. Feb. 2025
Alter 0.9 years
Typ internet

Technische Details

Klassifizierung Payload
Masse 730.00 kg
Trockenmasse 700.00 kg
Gesamtmasse 730.00 kg
Länge 0.30 m
Durchmesser 4.10 m
Spannweite 29.00 m
Form Box + pan
Hersteller SPXS
Bus-Typ Starlink V2M
Phasenstatus In Orbit
Besitzer/Staat SPXS/US

Große Konstellationen

Loading constellations...